This is the latest recevied weather packets stored in our database for station/object JI6FPP-13. If no packets are shown the sender has not sent any weather packets the latest 10 day(s).
| Time | Temp. | Humidity | Pressure | Rain* | Wind** | Luminosity | Snow |
|---|---|---|---|---|---|---|---|
| 1777854979 | 19.44° C | 29% | 1008 hPa | 0 mm | - | - | - |
| 1777854380 | 19.44° C | 29% | 1008 hPa | 0 mm | - | - | - |
| 1777853780 | 19.44° C | 28% | 1007 hPa | 0 mm | - | - | - |
| 1777853179 | 20° C | 27% | 1007 hPa | 0 mm | - | - | - |
| 1777852579 | 20.56° C | 25% | 1007 hPa | 0 mm | - | - | - |
| 1777851979 | 21.11° C | 26% | 1006 hPa | 0 mm | - | - | - |
| 1777851381 | 21.67° C | 26% | 1007 hPa | 0 mm | - | - | - |
| 1777850781 | 21.11° C | 30% | 1007 hPa | 0 mm | - | - | - |
| 1777850181 | 20.56° C | 33% | 1007 hPa | 0 mm | - | - | - |
| 1777849580 | 19.44° C | 33% | 1006 hPa | 0 mm | - | - | - |
| 1777848980 | 18.33° C | 36% | 1006 hPa | 0 mm | - | - | - |
| 1777848379 | 17.22° C | 37% | 1006 hPa | 0 mm | - | - | - |
| 1777847780 | 16.11° C | 38% | 1006 hPa | 0 mm | - | - | - |
| 1777847180 | 16.11° C | 40% | 1006 hPa | 0 mm | - | - | - |
| 1777846580 | 15.56° C | 43% | 1005 hPa | 0 mm | - | - | - |
| 1777845980 | 15° C | 44% | 1004 hPa | 0 mm | - | - | - |
| 1777845380 | 15° C | 46% | 1004 hPa | 0 mm | - | - | - |
| 1777844779 | 14.44° C | 49% | 1005 hPa | 0 mm | - | - | - |
| 1777844179 | 14.44° C | 52% | 1005 hPa | 0 mm | - | - | - |
| 1777843581 | 13.89° C | 51% | 1005 hPa | 0 mm | - | - | - |
| 1777842981 | 13.89° C | 51% | 1004 hPa | 0 mm | - | - | - |
| 1777842380 | 13.33° C | 54% | 1003 hPa | 0 mm | - | - | - |
| 1777841780 | 13.33° C | 55% | 1003 hPa | 0 mm | - | - | - |
| 1777841180 | 12.78° C | 56% | 1003 hPa | 0 mm | - | - | - |
| 1777840580 | 13.33° C | 56% | 1002 hPa | 0 mm | - | - | - |
* Rain latest hour (hover to see other rain measurements)
** Current wind speed in m/s (hover to see current wind gust speed)